This is the latest recevied weather packets stored in our database for station/object K9ZOG. If no packets are shown the sender has not sent any weather packets the latest 10 day(s).
| Time | Temp. | Humidity | Pressure | Rain* | Wind** | Luminosity | Snow |
|---|---|---|---|---|---|---|---|
| 1777577355 | 10° C | 60% | 1016.6 hPa | 0 mm | - | 719 W/m² | - |
| 1777577053 | 10° C | 59% | 1016.6 hPa | 0 mm | - | 748 W/m² | - |
| 1777576753 | 10° C | 62% | 1016.7 hPa | 0 mm | - | 825 W/m² | - |
| 1777576454 | 10° C | 58% | 1016.6 hPa | 0 mm | - | 831 W/m² | - |
| 1777576154 | 10° C | 60% | 1016.6 hPa | 0 mm | - | 660 W/m² | - |
| 1777575854 | 10° C | 58% | 1016.6 hPa | 0 mm | - | 838 W/m² | - |
| 1777575552 | 10° C | 60% | 1016.6 hPa | 0 mm | - | 757 W/m² | - |
| 1777575256 | 10° C | 59% | 1016.6 hPa | 0 mm | - | 868 W/m² | - |
| 1777574952 | 10° C | 56% | 1016.6 hPa | 0 mm | - | 875 W/m² | - |
| 1777574653 | 9.44° C | 56% | 1016.6 hPa | 0 mm | - | 885 W/m² | - |
| 1777574354 | 9.44° C | 54% | 1016.5 hPa | 0 mm | - | 891 W/m² | - |
| 1777574052 | 9.44° C | 53% | 1016.5 hPa | 0 mm | - | 896 W/m² | - |
| 1777573755 | 9.44° C | 51% | 1016.5 hPa | 0 mm | - | 900 W/m² | - |
| 1777573453 | 9.44° C | 59% | 1016.5 hPa | 0 mm | - | 920 W/m² | - |
| 1777573153 | 9.44° C | 53% | 1016.5 hPa | 0 mm | - | 583 W/m² | - |
| 1777572854 | 9.44° C | 51% | 1016.5 hPa | 0 mm | - | 501 W/m² | - |
| 1777572552 | 9.44° C | 53% | 1016.5 hPa | 0 mm | - | 643 W/m² | - |
| 1777572253 | 9.44° C | 56% | 1016.5 hPa | 0 mm | - | 990 W/m² | - |
| 1777571953 | 8.89° C | 57% | 1016.6 hPa | 0 mm | - | 667 W/m² | - |
| 1777571653 | 8.89° C | 56% | 1016.5 hPa | 0 mm | - | 382 W/m² | - |
| 1777571353 | 9.44° C | 54% | 1016.6 hPa | 0 mm | - | 629 W/m² | - |
| 1777571054 | 9.44° C | 56% | 1016.6 hPa | 0 mm | - | 387 W/m² | - |
| 1777570753 | 9.44° C | 59% | 1016.6 hPa | 0 mm | - | 439 W/m² | - |
| 1777570453 | 9.44° C | 52% | 1016.7 hPa | 0 mm | - | 696 W/m² | - |
| 1777570153 | 9.44° C | 51% | 1016.6 hPa | 0 mm | - | 923 W/m² | - |
* Rain latest hour (hover to see other rain measurements)
** Current wind speed in m/s (hover to see current wind gust speed)